Flag for Syria Weather past 2 weeks in Damascus, Syria

Now
73 °F

Clear.


Feels Like: 76 °F
Forecast: 68 / 93 °F
Wind: 21 mph from Southwest

Location: Damascus Int. Airport

Current Time: Sep 1, 2014 at 11:21:46 PM

Latest Report: Sep 1, 2014 at 11:00 PM


Visibility: 10 mi

Pressure: 29.80 "Hg

Humidity: 69%

Dew point: 63 °F

Location of DamascusLocation

Historic Weather in Damascus — Graph

°F

Damascus temperature yesterday

Maximum temperature yesterday: 104 °F (at 5:00 PM)
Minimum temperature yesterday: 68 °F (at 5:00 AM)
Average temperature yesterday: 86 °F

Past Weeks' High & Low Weather Summary

 TemperatureHumidityPressure
High106 °F (Aug 24, 5:00 PM)100% (Aug 19, 7:00 PM)30.01 "Hg (Aug 19, 7:00 PM)
Low36 °F (Aug 19, 7:00 PM)5% (Aug 21, 4:00 PM)29.65 "Hg (Aug 18, 5:00 PM)
Average83 °F46%29.83 "Hg
* Reported Aug 17 10:00 PM — Sep 1 10:00 PM, Damascus, Weather by CustomWeather, © 2014

Note: Actual official high and low records may vary slightly from our data, if they occured in-between our weather recording intervals... More about our weather records

Advertising

Damascus weather history for previous 24 hours

 ConditionsComfort  
Time TempWeatherWind HumidityBarometerVisibility
10:00 PM
Sep 1
75 °FClear.28 mph65%29.77 "Hg10 mi
9:00 PM77 °FClear.23 mph61%29.77 "Hg10 mi
8:00 PM81 °FClear.21 mph51%29.74 "Hg10 mi
7:00 PM86 °FSunny.23 mph38%29.74 "Hg10 mi
6:00 PM91 °FSunny.23 mph32%29.71 "Hg10 mi
5:00 PM95 °FSunny.23 mph26%29.74 "Hg10 mi
4:00 PM97 °FSunny.23 mph25%29.74 "Hg10 mi
3:00 PM99 °FSunny.18 mph24%29.74 "Hg10 mi
2:00 PM97 °FSunny.21 mph27%29.74 "Hg10 mi
1:00 PM95 °FSunny.7 mph30%29.77 "Hg10 mi
12:00 PM91 °FSunny.7 mph36%29.80 "Hg10 mi
11:00 AM88 °FSunny.7 mph43%29.83 "Hg10 mi
10:00 AM82 °FSunny.7 mph55%29.83 "Hg10 mi
9:00 AM79 °FSunny.9 mph61%29.83 "Hg10 mi
8:00 AM75 °FSunny.14 mph74%29.83 "Hg10 mi
7:00 AM72 °FFog.14 mph83%29.83 "Hg3 mi
6:00 AM73 °FFog.16 mph78%29.83 "Hg3 mi
5:00 AM73 °FClear.12 mph78%29.80 "Hg10 mi
4:00 AM73 °FClear.14 mph78%29.80 "Hg10 mi
3:00 AM73 °FClear.23 mph78%29.80 "Hg10 mi
2:00 AM75 °FClear.21 mph78%29.80 "Hg10 mi
1:00 AM77 °FClear.21 mph74%29.80 "Hg10 mi
12:00 AM79 °FClear.18 mph70%29.80 "Hg10 mi
11:00 PM
Aug 31
82 °FClear.12 mph58%29.80 "Hg10 mi
Weather by CustomWeather, © 2014

See weather overviewHow to use our weather pages